Location: C�an Torras
(41.5052°N, 1.9280°E)
Time: 01:28:13
(UTC+00:00)

CZ-2C R/B - Pass Details

Date: 20 January 2021
Orbit: 785 x 870 km, 98.2° (Epoch: 08 March)

Event Time Altitude Azimuth Distance (km) Brightness Sun altitude
Exits shadow 17:45:42 12° 67° (ENE) 2,339 4.3 -9.9°
Maximum altitude 17:47:37 14° 89° (E) 2,206 4.3 -10.2°
Drops below altitude 10° 17:50:32 10° 121° (ESE) 2,506 4.8 -10.7°
Sets 17:54:09 0° 145° (SE) 3,443 5.7 -11.4°
